TimeCDT,TemperatureF,Dew PointF,Humidity,Sea Level PressureIn,VisibilityMPH,Wind Direction,Wind SpeedMPH,Gust SpeedMPH,PrecipitationIn,Events,Conditions,WindDirDegrees,DateUTC
12:54 AM,42.1,28.0,58,29.97,10.0,South,11.5,-,N/A,,Clear,190,2012-10-08 05:54:00
1:54 AM,42.1,28.9,60,29.96,10.0,SSW,10.4,-,N/A,,Clear,200,2012-10-08 06:54:00
2:54 AM,43.0,32.0,65,29.95,10.0,SSW,10.4,-,N/A,,Clear,200,2012-10-08 07:54:00
3:54 AM,44.1,33.1,65,29.93,10.0,SW,6.9,-,N/A,,Clear,220,2012-10-08 08:54:00
4:54 AM,42.1,33.1,70,29.93,10.0,SSE,9.2,-,N/A,,Clear,150,2012-10-08 09:54:00
5:54 AM,42.1,33.1,70,29.93,10.0,SSE,9.2,-,N/A,,Clear,160,2012-10-08 10:54:00
6:54 AM,43.0,33.1,68,29.92,10.0,South,10.4,-,N/A,,Clear,190,2012-10-08 11:54:00
7:54 AM,42.1,32.0,67,29.92,9.0,South,9.2,-,N/A,,Clear,180,2012-10-08 12:54:00
8:54 AM,46.0,34.0,63,29.91,8.0,South,13.8,-,N/A,,Clear,170,2012-10-08 13:54:00
9:54 AM,52.0,32.0,47,29.91,10.0,SSW,12.7,-,N/A,,Clear,200,2012-10-08 14:54:00
10:54 AM,59.0,30.9,35,29.88,10.0,SSW,17.3,-,N/A,,Clear,210,2012-10-08 15:54:00
11:54 AM,62.1,30.9,31,29.85,10.0,South,19.6,-,N/A,,Clear,190,2012-10-08 16:54:00
12:54 PM,68.0,28.9,23,29.83,10.0,SSW,24.2,31.1,N/A,,Clear,200,2012-10-08 17:54:00
1:54 PM,71.1,27.0,19,29.78,10.0,SSW,24.2,34.5,N/A,,Clear,200,2012-10-08 18:54:00
2:54 PM,73.9,28.0,18,29.75,10.0,South,23.0,31.1,N/A,,Clear,190,2012-10-08 19:54:00
3:54 PM,75.9,25.0,15,29.73,10.0,SSW,24.2,33.4,N/A,,Partly Cloudy,210,2012-10-08 20:54:00
4:54 PM,73.0,26.1,17,29.72,10.0,SSW,26.5,31.1,N/A,,Clear,200,2012-10-08 21:54:00
5:54 PM,72.0,26.1,18,29.72,10.0,South,19.6,-,N/A,,Mostly Cloudy,190,2012-10-08 22:54:00
6:54 PM,68.0,28.0,22,29.72,9.0,South,13.8,-,N/A,,Mostly Cloudy,180,2012-10-08 23:54:00
7:54 PM,61.0,28.0,29,29.75,7.0,West,9.2,-,N/A,,Clear,280,2012-10-09 00:54:00
8:15 PM,66.2,28.4,24,29.77,10.0,WSW,11.5,23.0,N/A,,Clear,250,2012-10-09 01:15:00
9:54 PM,54.0,27.0,35,29.78,10.0,SSW,10.4,-,N/A,,Clear,200,2012-10-09 02:54:00
10:54 PM,53.1,30.0,41,29.79,9.0,NNW,8.1,-,N/A,,Clear,340,2012-10-09 03:54:00
11:54 PM,50.0,32.0,50,29.79,6.0,NNE,3.5,-,N/A,,Haze,20,2012-10-09 04:54:00